Regional Weather Roundup
Issued by NWS Northern Indiana

Home | Current Version | Previous Version | Text Only | Print | Product List | Glossary On
Versions: 1 2 3 4 5 6 7 8 9 10 11 12 13 14 15 16 17 18 19 20 21 22 23 24 25 26 27 28 29 30 31 32 33 34 35 36 37 38 39 40 41 42 43 44 45 46 47 48 49 50
000
ASUS43 KIWX 280100
RWRIWX

KIWX WEATHER ROUNDUP
NATIONAL WEATHER SERVICE NORTHERN INDIANA
900 PM EDT MON APR 27 2015

NOTE: "FAIR" INDICATES FEW OR NO CLOUDS BELOW 12,000 FEET WITH NO
SIGNIFICANT WEATHER AND/OR OBSTRUCTIONS TO VISIBILITY.

* THESE STATIONS ARE NOT UNDER NWS QUALITY CONTROL. THEY ALSO MAY NOT
  REPORT WEATHER SUCH AS PRECIPITATION OR FOG.

INZ001>027-280200-
NORTHERN INDIANA

CITY           SKY/WX    TMP DP  RH WIND       PRES   REMARKS
GARY*          PTCLDY    43  32  65 N10       30.12S
KNOX*          PTCLDY    43  23  45 N7        30.09S
SOUTH BEND     CLEAR     45  34  65 N6        30.11R
ELKHART*       CLEAR     48  32  53 N3        30.10R
GOSHEN         CLOUDY    48  36  63 N6        30.08R
MONTICELLO*    CLEAR     47  34  62 N7        30.08R
WARSAW*        MOCLDY    46  36  66 N3        30.08R
ANGOLA*        CLEAR     46  36  66 CALM      30.08R
FORT WAYNE     PTCLDY    46  34  62 NE8       30.08R
PERU/GRISSOM   PTCLDY    45  36  71 N6        30.07R

$$
INZ028>050-280200-
CENTRAL INDIANA

CITY           SKY/WX    TMP DP  RH WIND       PRES   REMARKS
LAFAYETTE      CLEAR     48  33  56 N9        30.08R
KOKOMO*        PTCLDY    46  36  66 NE6       30.07R
MUNCIE*        CLOUDY    50  36  58 NE9       30.06R
INDIANAPOLIS   MOCLDY    51  34  52 N8        30.05R

$$
MIZ043>046-050>051-056>058-064>065-071>073-077>080-280200-
SOUTHWEST LOWER MICHIGAN

CITY           SKY/WX    TMP DP  RH WIND       PRES   REMARKS
BATTLE CREEK   CLOUDY    50  33  52 CALM      30.08S
BENTON HARBOR  CLEAR     42  33  70 VRB3      30.10S
COLDWATER*     MOCLDY    44  32  63 CALM      30.08R
HILLSDALE*     MOCLDY    46  33  62 CALM      30.07R
HOLLAND        PTCLDY    46  35  65 W5        30.09S
GRAND RAPIDS   MOCLDY    50  34  54 W6        30.08R
KALAMAZOO      CLOUDY    49  35  58 NW6       30.09R
STURGIS*       CLOUDY    46  36  66 CALM      30.08R
THREE RIVERS*  FAIR      46  35  65 NW6       30.09R

$$
OHZ001>008-015>018-024>025-280200-
NORTHWEST OHIO

CITY           SKY/WX    TMP DP  RH WIND       PRES   REMARKS
DEFIANCE       MOCLDY    47  34  60 N6        30.08R
FINDLAY        MOCLDY    47  34  60 N5        30.05S
TOLEDO EXPRESS PTCLDY    46  32  58 N3        30.07R
TOLEDO METCALF MOCLDY    47  32  56 N5        30.07S
LIMA           CLOUDY    46  36  68 N8        30.06R

$$
AND FOR LAKE MICHIGAN COASTAL AND OPEN LAKE BUOY OBSERVATIONS

STATION/POSITION TEMP    WIND        PRES    VSBY  WAVE
                 AIR SEA DIR/SP/G                  HT/PER
                 (F)     (DEG/KT/KT) (MB)    (MI)  (FT/S)
CALUMET HARBOR    43     340/  6/  8   N/A
MICHIGAN CITY     42      20/ 11/ 12   N/A
BURNS HARBOR      43      50/  9/ 11 1020.0S
SAINT JOSEPH      43      20/  8/ 13 1020.3R
MICHIGAN CITY     42 45   90/ 10/ 12   N/A           3/ 5

$$
&&



USA.gov is the U.S. government's official web portal to all federal, state and local government web resources and services.